When you browse on this site, cookies collect data to enhance your experience and personalize the content and advertising you see.
Visit our Privacy Policy to learn more. By continuing to use the site, you agree to this use of cookies and data.
  • En España
  • Lista de países
  • Para 7 días
  • Temperatura del agua
  • Mapa Satelital
  • El tiempo en el mapa
  • Informadores
  • user-avatar
    Iniciar sesión

    Tiempo cada hora Escaldes-Engordany

    Hoy, 16 Diciembre, Domingo

    Tiempo Temperatura Precipitaciones Viento Presión Humedad
    00:00 +5°C° 0 mm 1 mps 638 mmHg 89%
    01:00 +5°C° 0.2 mm 1 mps 638 mmHg 90%
    02:00 +5°C° 0.2 mm 1 mps 638 mmHg 91%
    03:00 +5°C° 0.2 mm 1 mps 638 mmHg 93%
    04:00 +4°C° 0.2 mm 1 mps 638 mmHg 93%
    05:00 +4°C° 0.2 mm 1 mps 637 mmHg 93%
    06:00 +3°C° 0 mm 0 mps 637 mmHg 93%
    07:00 +4°C° 1 mm 1 mps 637 mmHg 93%
    08:00 +5°C° 1 mm 1 mps 637 mmHg 94%
    09:00 +5°C° 1 mm 1 mps 638 mmHg 94%
    10:00 +4°C° 1 mm 2 mps 637 mmHg 94%
    11:00 +4°C° 1 mm 2 mps 637 mmHg 94%
    12:00 +4°C° 1 mm 2 mps 637 mmHg 94%
    13:00 +4°C° 0.3 mm 2 mps 637 mmHg 93%
    14:00 +4°C° 0.3 mm 2 mps 637 mmHg 93%
    15:00 +4°C° 0.3 mm 2 mps 637 mmHg 93%
    16:00 +4°C° 0.4 mm 2 mps 637 mmHg 94%
    17:00 +3°C° 0.4 mm 2 mps 637 mmHg 94%
    18:00 +1°C° 0.4 mm 3 mps 637 mmHg 95%
    19:00 +1°C° 0.4 mm 3 mps 637 mmHg 93%
    20:00 0°C° 0.4 mm 3 mps 638 mmHg 90%
    21:00 0°C° 0.4 mm 3 mps 638 mmHg 88%
    22:00 -1°C° 0 mm 3 mps 639 mmHg 87%
    23:00 -2°C° 0 mm 3 mps 639 mmHg 87%

    Mañana, 17 Diciembre, Lunes

    Tiempo Temperatura Precipitaciones Viento Presión Humedad
    00:00 -2°C° 0 mm 3 mps 639 mmHg 86%
    01:00 -4°C° 0 mm 3 mps 639 mmHg 85%
    02:00 -4°C° 0 mm 3 mps 639 mmHg 84%
    03:00 -4°C° 0 mm 3 mps 640 mmHg 83%
    04:00 -4°C° 0 mm 3 mps 640 mmHg 82%
    05:00 -4°C° 0 mm 3 mps 640 mmHg 81%
    06:00 -4°C° 0 mm 3 mps 641 mmHg 81%
    07:00 -2°C° 0 mm 3 mps 642 mmHg 79%
    08:00 -2°C° 0 mm 3 mps 642 mmHg 77%
    09:00 -1°C° 0 mm 3 mps 643 mmHg 75%
    10:00 +1°C° 0 mm 2 mps 644 mmHg 69%
    11:00 +3°C° 0 mm 2 mps 644 mmHg 63%
    12:00 +4°C° 0 mm 2 mps 645 mmHg 57%
    13:00 +5°C° 0 mm 1 mps 645 mmHg 59%
    14:00 +5°C° 0 mm 1 mps 645 mmHg 61%
    15:00 +5°C° 0 mm 1 mps 644 mmHg 63%
    16:00 +3°C° 0 mm 1 mps 644 mmHg 67%
    17:00 +1°C° 0 mm 1 mps 643 mmHg 71%
    18:00 0°C° 0 mm 1 mps 643 mmHg 75%
    19:00 0°C° 0 mm 1 mps 643 mmHg 73%
    20:00 0°C° 0 mm 1 mps 643 mmHg 70%
    21:00 0°C° 0 mm 1 mps 643 mmHg 68%
    22:00 0°C° 0 mm 1 mps 643 mmHg 69%
    23:00 0°C° 0 mm 1 mps 643 mmHg 70%

    Pasado mañana, 18 Diciembre, Martes

    Tiempo Temperatura Precipitaciones Viento Presión Humedad
    00:00 0°C° 0 mm 1 mps 642 mmHg 71%
    01:00 0°C° 0 mm 1 mps 642 mmHg 70%
    02:00 0°C° 0 mm 1 mps 641 mmHg 70%
    03:00 -1°C° 0 mm 1 mps 641 mmHg 69%
    04:00 -2°C° 0 mm 2 mps 641 mmHg 67%
    05:00 -2°C° 0 mm 2 mps 640 mmHg 65%
    06:00 -2°C° 0 mm 2 mps 640 mmHg 63%
    07:00 -1°C° 0 mm 2 mps 640 mmHg 59%
    08:00 +1°C° 0 mm 2 mps 641 mmHg 56%
    09:00 +2°C° 0 mm 2 mps 641 mmHg 53%
    10:00 +3°C° 0 mm 2 mps 641 mmHg 51%
    11:00 +4°C° 0 mm 3 mps 641 mmHg 49%
    12:00 +5°C° 0 mm 3 mps 641 mmHg 48%
    13:00 +4°C° 0 mm 3 mps 640 mmHg 50%
    14:00 +4°C° 0 mm 3 mps 640 mmHg 53%
    15:00 +3°C° 0 mm 3 mps 639 mmHg 56%
    16:00 +3°C° 0 mm 2 mps 639 mmHg 58%
    17:00 +2°C° 0 mm 2 mps 639 mmHg 61%
    18:00 +1°C° 0 mm 2 mps 638 mmHg 63%
    19:00 +1°C° 0 mm 2 mps 638 mmHg 63%
    20:00 +1°C° 0 mm 2 mps 639 mmHg 64%
    21:00 +1°C° 0 mm 2 mps 639 mmHg 65%
    22:00 +2°C° 0 mm 1 mps 639 mmHg 68%
    23:00 +2°C° 0 mm 1 mps 638 mmHg 71%

    19 Diciembre, Miércoles

    Tiempo Temperatura Precipitaciones Viento Presión Humedad
    00:00 +2°C° 0 mm 1 mps 638 mmHg 74%
    01:00 +2°C° 0.1 mm 1 mps 638 mmHg 75%
    02:00 +2°C° 0.1 mm 1 mps 638 mmHg 77%
    03:00 +2°C° 0.1 mm 1 mps 638 mmHg 78%
    04:00 +2°C° 0 mm 1 mps 638 mmHg 81%
    05:00 0°C° 0 mm 0 mps 638 mmHg 84%
    06:00 0°C° 0 mm 0 mps 638 mmHg 87%
    07:00 0°C° 0 mm 0 mps 638 mmHg 85%
    08:00 +1°C° 0 mm 0 mps 639 mmHg 83%
    09:00 +3°C° 0 mm 1 mps 640 mmHg 81%
    10:00 +4°C° 0 mm 1 mps 640 mmHg 76%
    11:00 +4°C° 0 mm 1 mps 640 mmHg 70%
    12:00 +5°C° 0 mm 1 mps 640 mmHg 65%
    13:00 +4°C° 0 mm 2 mps 640 mmHg 66%
    14:00 +4°C° 0 mm 2 mps 640 mmHg 67%
    15:00 +3°C° 0 mm 2 mps 640 mmHg 67%
    16:00 +2°C° 0 mm 2 mps 640 mmHg 73%
    17:00 -1°C° 0 mm 2 mps 639 mmHg 78%
    18:00 0°C° 0 mm 1 mps 639 mmHg 83%
    19:00 0°C° 0 mm 1 mps 639 mmHg 81%
    20:00 -1°C° 0 mm 1 mps 640 mmHg 80%
    21:00 -1°C° 0 mm 1 mps 640 mmHg 78%
    22:00 -1°C° 0 mm 1 mps 640 mmHg 77%
    23:00 -1°C° 0 mm 1 mps 640 mmHg 76%

    20 Diciembre, Jueves

    Tiempo Temperatura Precipitaciones Viento Presión Humedad
    00:00 -1°C° 0 mm 1 mps 640 mmHg 74%
    01:00 -1°C° 0 mm 1 mps 640 mmHg 74%
    02:00 -1°C° 0 mm 1 mps 640 mmHg 73%
    03:00 -1°C° 0 mm 1 mps 640 mmHg 73%
    04:00 -1°C° 0 mm 1 mps 640 mmHg 73%
    05:00 -1°C° 0 mm 1 mps 640 mmHg 72%
    06:00 -3°C° 0 mm 2 mps 641 mmHg 72%
    07:00 0°C° 0 mm 1 mps 641 mmHg 70%
    08:00 +1°C° 0 mm 1 mps 642 mmHg 69%
    09:00 +2°C° 0 mm 1 mps 643 mmHg 67%
    10:00 +3°C° 0 mm 1 mps 643 mmHg 63%
    11:00 +5°C° 0 mm 1 mps 644 mmHg 58%
    12:00 +6°C° 0 mm 1 mps 644 mmHg 54%
    13:00 +6°C° 0 mm 1 mps 644 mmHg 57%
    14:00 +5°C° 0 mm 1 mps 643 mmHg 60%
    15:00 +5°C° 0 mm 1 mps 643 mmHg 63%
    16:00 +3°C° 0 mm 1 mps 643 mmHg 69%
    17:00 +2°C° 0 mm 1 mps 642 mmHg 75%
    18:00 0°C° 0 mm 1 mps 642 mmHg 81%
    19:00 0°C° 0 mm 1 mps 642 mmHg 80%
    20:00 0°C° 0 mm 1 mps 642 mmHg 78%
    21:00 0°C° 0 mm 1 mps 642 mmHg 77%
    22:00 0°C° 0 mm 1 mps 642 mmHg 76%
    23:00 0°C° 0 mm 1 mps 642 mmHg 74%

    21 Diciembre, Viernes

    Tiempo Temperatura Precipitaciones Viento Presión Humedad
    00:00 +1°C° 0 mm 1 mps 642 mmHg 72%
    01:00 +1°C° 0 mm 1 mps 642 mmHg 71%
    02:00 +2°C° 0 mm 1 mps 642 mmHg 69%
    03:00 +2°C° 0 mm 1 mps 642 mmHg 67%
    04:00 +2°C° 0 mm 1 mps 642 mmHg 67%
    05:00 +2°C° 0 mm 1 mps 642 mmHg 66%
    06:00 +2°C° 0 mm 1 mps 642 mmHg 65%
    07:00 +3°C° 0.1 mm 1 mps 643 mmHg 64%
    08:00 +4°C° 0.1 mm 1 mps 643 mmHg 63%
    09:00 +5°C° 0.1 mm 1 mps 644 mmHg 61%
    10:00 +6°C° 0.1 mm 1 mps 644 mmHg 63%
    11:00 +8°C° 0.1 mm 1 mps 645 mmHg 65%
    12:00 +9°C° 0.1 mm 1 mps 645 mmHg 66%
    13:00 +9°C° 0 mm 1 mps 645 mmHg 70%
    14:00 +9°C° 0 mm 1 mps 645 mmHg 73%
    15:00 +9°C° 0 mm 1 mps 645 mmHg 77%
    16:00 +7°C° 0 mm 1 mps 645 mmHg 80%
    17:00 +6°C° 0 mm 1 mps 645 mmHg 83%
    18:00 +5°C° 0 mm 1 mps 645 mmHg 86%
    19:00 +5°C° 0 mm 1 mps 645 mmHg 86%
    20:00 +5°C° 0 mm 1 mps 645 mmHg 85%
    21:00 +5°C° 0 mm 1 mps 645 mmHg 85%
    22:00 +5°C° 0 mm 1 mps 645 mmHg 84%
    23:00 +5°C° 0 mm 1 mps 645 mmHg 83%
    Mostrar más